TimeMST,TemperatureF,Dew PointF,Humidity,Sea Level PressureIn,VisibilityMPH,Wind Direction,Wind SpeedMPH,Gust SpeedMPH,PrecipitationIn,Events,Conditions,WindDirDegrees,DateUTC
12:52 AM,27.0,24.1,89,30.38,10.0,Calm,Calm,-,N/A,,Scattered Clouds,0,2011-11-29 07:52:00
1:52 AM,28.9,25.0,85,30.38,10.0,ESE,4.6,-,N/A,,Overcast,120,2011-11-29 08:52:00
2:52 AM,26.6,24.8,93,30.29,10.0,SE,5.8,-,N/A,,Partly Cloudy,130,2011-11-29 09:52:00
3:52 AM,25.0,23.0,92,30.36,10.0,SSE,5.8,-,N/A,,Clear,150,2011-11-29 10:52:00
4:52 AM,27.0,23.0,85,30.37,10.0,SSE,10.4,-,N/A,,Clear,160,2011-11-29 11:52:00
5:52 AM,28.0,24.1,85,30.36,10.0,ESE,4.6,-,N/A,,Clear,120,2011-11-29 12:52:00
6:52 AM,27.0,24.1,89,30.36,10.0,SE,4.6,-,N/A,,Clear,130,2011-11-29 13:52:00
7:52 AM,26.1,24.1,92,30.36,10.0,Calm,Calm,-,N/A,,Clear,0,2011-11-29 14:52:00
8:52 AM,30.9,28.0,89,30.33,10.0,SE,5.8,-,N/A,,Clear,130,2011-11-29 15:52:00
9:52 AM,37.0,30.9,79,30.32,10.0,SSE,5.8,-,N/A,,Clear,150,2011-11-29 16:52:00
10:52 AM,44.1,32.0,63,30.28,10.0,SSE,6.9,-,N/A,,Clear,160,2011-11-29 17:52:00
11:52 AM,48.9,30.9,50,30.22,10.0,South,5.8,-,N/A,,Clear,170,2011-11-29 18:52:00
12:52 PM,50.0,28.9,44,30.20,10.0,South,5.8,-,N/A,,Clear,170,2011-11-29 19:52:00
1:52 PM,51.1,28.0,41,30.17,10.0,South,4.6,-,N/A,,Clear,170,2011-11-29 20:52:00
2:52 PM,48.9,28.9,46,30.17,10.0,SSE,3.5,-,N/A,,Clear,150,2011-11-29 21:52:00
3:52 PM,44.6,28.4,53,30.09,10.0,Calm,Calm,-,N/A,,Clear,0,2011-11-29 22:52:00
4:52 PM,39.0,28.0,65,30.16,10.0,Calm,Calm,-,N/A,,Clear,0,2011-11-29 23:52:00
5:52 PM,39.0,28.0,65,30.15,10.0,Calm,Calm,-,N/A,,Clear,0,2011-11-30 00:52:00
6:52 PM,36.0,27.0,70,30.14,10.0,Calm,Calm,-,N/A,,Clear,0,2011-11-30 01:52:00
7:52 PM,34.0,28.0,79,30.12,10.0,Calm,Calm,-,N/A,,Clear,0,2011-11-30 02:52:00
8:52 PM,30.9,27.0,85,30.10,10.0,Calm,Calm,-,N/A,,Clear,0,2011-11-30 03:52:00
9:52 PM,32.0,27.0,82,30.04,10.0,North,3.5,-,N/A,,Clear,350,2011-11-30 04:52:00
10:52 PM,32.0,25.0,75,30.01,10.0,Calm,Calm,-,N/A,,Clear,0,2011-11-30 05:52:00
11:52 PM,33.1,26.1,75,29.97,10.0,Calm,Calm,-,N/A,,Clear,0,2011-11-30 06:52:00